Retour au catalogue

STARLINK-2063

ActifCommunicationsVLEO
NORAD 48553·PAYLOAD·🇺🇸 United States

Lancé May 15, 2021 depuis Cape Canaveral Space Force Station

Loading…

Prochains Passages (prochaines 24 heures)

TLE

FraisSource: CelesTrak SupGP

Époque: Sep 14, 2026, 20:29 UTC

1 48553C 21041A   26257.85395833 -.00031153  00000+0 -10017-2 0  2571
2 48553  53.1602 326.4818 0001285  77.6755 314.9040 15.31720866    10

Suivez STARLINK-2063 en temps réel avec AllMySat

Download on the App Store